This is the latest recevied weather packets stored in our database for station/object N0OQA. If no packets are shown the sender has not sent any weather packets the latest 10 day(s).
| Time | Temp. | Humidity | Pressure | Rain* | Wind** | Luminosity | Snow |
|---|---|---|---|---|---|---|---|
| 1787956217 | 25.56° C | 57% | 1019.5 hPa | 0 mm | - | - | - |
| 1787955616 | 25° C | 58% | 1019.7 hPa | 0 mm | - | - | - |
| 1787955316 | 25° C | 59% | 1019.7 hPa | 0 mm | - | - | - |
| 1787954714 | 25° C | 58% | 1019.7 hPa | 0 mm | - | - | - |
| 1787954417 | 25.56° C | 56% | 1019.9 hPa | 0 mm | - | - | - |
| 1787954113 | 26.11° C | 54% | 1019.9 hPa | 0 mm | - | - | - |
| 1787953819 | 26.67° C | 52% | 1019.9 hPa | 0 mm | - | - | - |
| 1787953513 | 26.67° C | 52% | 1019.9 hPa | 0 mm | - | - | - |
| 1787953212 | 26.67° C | 52% | 1020 hPa | 0 mm | - | - | - |
| 1787952912 | 27.22° C | 51% | 1020.1 hPa | 0 mm | - | - | - |
| 1787952311 | 26.67° C | 51% | 1020 hPa | 0 mm | - | - | - |
| 1787952010 | 26.67° C | 50% | 1020 hPa | 0 mm | - | - | - |
| 1787951710 | 27.22° C | 48% | 1020.1 hPa | 0 mm | - | - | - |
| 1787950809 | 26.67° C | 45% | 1020.4 hPa | 0 mm | - | - | - |
| 1787949908 | 26.67° C | 48% | 1020.4 hPa | 0 mm | - | - | - |
| 1787949308 | 26.67° C | 46% | 1020.6 hPa | 0 mm | - | - | - |
| 1787949007 | 26.67° C | 47% | 1020.6 hPa | 0 mm | - | - | - |
| 1787948707 | 26.67° C | 47% | 1020.6 hPa | 0 mm | - | - | - |
| 1787948407 | 26.11° C | 47% | 1020.7 hPa | 0 mm | - | - | - |
| 1787948106 | 26.11° C | 46% | 1020.6 hPa | 0 mm | - | - | - |
| 1787947806 | 26.67° C | 45% | 1020.8 hPa | 0 mm | - | - | - |
| 1787947506 | 26.67° C | 45% | 1020.8 hPa | 0 mm | - | - | - |
| 1787947213 | 26.67° C | 45% | 1020.8 hPa | 0 mm | - | - | - |
| 1787946905 | 26.67° C | 45% | 1020.9 hPa | 0 mm | - | - | - |
| 1787946605 | 27.22° C | 44% | 1020.9 hPa | 0 mm | - | - | - |
* Rain since midnight (hover to see other rain measurements)
** Current wind speed in m/s (hover to see current wind gust speed)